| time (UTC) | temp F | wind direction | speed MPH | gust MPH | rain 1hr in | rain 24hr in | rain mn in | humidity % | barometer mb |
| 20260508103030 | 49 | 193 | 0.0 | 3.0 | 0.00 | 0.00 | 0.00 | 90 | 1016.8 |
| 20260508101527 | 49 | 201 | 0.0 | 3.0 | 0.00 | 0.00 | 0.00 | 90 | 1016.9 |
| 20260508100027 | 49 | 158 | 0.0 | 2.0 | 0.00 | 0.00 | 0.00 | 90 | 1016.9 |
| 20260508094540 | 49 | 156 | 0.0 | 2.0 | 0.00 | 0.00 | 0.00 | 90 | 1016.7 |
| 20260508093027 | 49 | 197 | 0.0 | 3.0 | 0.00 | 0.00 | 0.00 | 90 | 1016.7 |
| 20260508091540 | 49 | 151 | 0.0 | 1.0 | 0.00 | 0.00 | 0.00 | 89 | 1016.7 |
| 20260508090026 | 49 | 219 | 0.0 | 1.0 | 0.00 | 0.00 | 0.00 | 90 | 1016.6 |
| 20260508084522 | 49 | 153 | 0.0 | 2.0 | 0.00 | 0.00 | 0.00 | 90 | 1016.7 |
| 20260508083020 | 49 | 163 | 0.0 | 0.0 | 0.00 | 0.00 | 0.00 | 90 | 1016.8 |
| 20260508081530 | 49 | 148 | 0.0 | 1.0 | 0.00 | 0.00 | 0.00 | 91 | 1016.8 |
| 20260508080017 | 49 | 155 | 0.0 | 1.0 | 0.00 | 0.00 | 0.00 | 91 | 1016.9 |
| 20260508074516 | 49 | 139 | 0.0 | 1.0 | 0.00 | 0.00 | 0.00 | 91 | 1017.1 |
| 20260508073014 | 49 | 150 | 0.0 | 3.0 | 0.00 | 0.00 | 0.00 | 91 | 1017.1 |
| 20260508071520 | 49 | 119 | 0.0 | 1.0 | 0.00 | 0.00 | 0.00 | 91 | 1017.1 |
| 20260508070012 | 49 | 134 | 0.0 | 3.0 | 0.00 | 0.00 | 0.00 | 91 | 1017.1 |
| 20260508064514 | 49 | 135 | 1.0 | 4.0 | 0.00 | 0.00 | 0.00 | 91 | 1017.2 |
| 20260508063010 | 49 | 120 | 1.0 | 3.0 | 0.00 | 0.00 | 0.00 | 92 | 1017.2 |
| 20260508061510 | 49 | 148 | 0.0 | 2.0 | 0.00 | 0.00 | 0.00 | 91 | 1017.3 |
| 20260508060019 | 49 | 124 | 0.0 | 3.0 | 0.00 | 0.00 | 0.00 | 91 | 1017.4 |
| 20260508054509 | 49 | 129 | 0.0 | 2.0 | 0.00 | 0.00 | 0.00 | 90 | 1017.4 |
| 20260508053009 | 50 | 209 | 1.0 | 4.0 | 0.00 | 0.00 | 0.00 | 90 | 1017.4 |
| 20260508051507 | 50 | 156 | 0.0 | 3.0 | 0.00 | 0.00 | 0.00 | 90 | 1017.3 |
| 20260508050009 | 50 | 160 | 0.0 | 3.0 | 0.00 | 0.00 | 0.00 | 90 | 1017.2 |
| 20260508044507 | 50 | 170 | 0.0 | 3.0 | 0.00 | 0.00 | 0.00 | 90 | 1017.3 |
| 20260508043005 | 50 | 171 | 0.0 | 3.0 | 0.00 | 0.00 | 0.00 | 90 | 1017.5 |
| 20260508041504 | 51 | 222 | 0.0 | 4.0 | 0.00 | 0.00 | 0.00 | 89 | 1017.6 |
| 20260508040006 | 51 | 156 | 1.0 | 4.0 | 0.00 | 0.00 | 0.00 | 88 | 1017.6 |
| 20260508034504 | 51 | 311 | 1.0 | 6.0 | 0.00 | 0.00 | 0.00 | 86 | 1017.5 |
| 20260508033002 | 52 | 162 | 0.0 | 4.0 | 0.00 | 0.00 | 0.00 | 85 | 1017.4 |
| 20260508031500 | 53 | 295 | 0.0 | 6.0 | 0.00 | 0.00 | 0.00 | 83 | 1017.4 |
| 20260508030111 | 54 | 152 | 1.0 | 5.0 | 0.00 | 0.00 | 0.00 | 82 | 1017.4 |
| 20260508030001 | 54 | 111 | 1.0 | 5.0 | 0.00 | 0.00 | 0.00 | 82 | 1017.4 |
| 20260508024621 | 56 | 255 | 1.0 | 5.0 | 0.00 | 0.00 | 0.00 | 79 | 1017.6 |
| 20260508023058 | 58 | 255 | 0.0 | 5.0 | 0.00 | 0.00 | 0.00 | 74 | 1017.7 |
| 20260508021558 | 60 | 266 | 0.0 | 3.0 | 0.00 | 0.00 | 0.00 | 70 | 1017.7 |
| 20260508020109 | 61 | 248 | 1.0 | 5.0 | 0.00 | 0.00 | 0.00 | 67 | 1017.7 |
| 20260508014611 | 62 | 162 | 1.0 | 5.0 | 0.00 | 0.00 | 0.00 | 66 | 1017.8 |
| 20260508013107 | 61 | 251 | 1.0 | 5.0 | 0.00 | 0.00 | 0.00 | 68 | 1017.8 |
| 20260508011557 | 60 | 247 | 2.0 | 4.0 | 0.00 | 0.00 | 0.00 | 68 | 1018.0 |
| 20260508010055 | 60 | 254 | 2.0 | 6.0 | 0.00 | 0.00 | 0.00 | 70 | 1018.2 |
| 20260508004549 | 59 | 234 | 2.0 | 6.0 | 0.00 | 0.00 | 0.00 | 71 | 1018.4 |
| 20260508003048 | 60 | 127 | 0.0 | 4.0 | 0.00 | 0.00 | 0.00 | 70 | 1018.5 |
| 20260508001554 | 60 | 249 | 1.0 | 6.0 | 0.00 | 0.00 | 0.00 | 71 | 1018.5 |
| 20260508000048 | 61 | 240 | 1.0 | 6.0 | 0.00 | 0.00 | 0.00 | 70 | 1018.4 |
| 20260507234545 | 61 | 174 | 2.0 | 7.0 | 0.00 | 0.00 | 0.00 | 71 | 1018.5 |
| 20260507233045 | 61 | 231 | 1.0 | 6.0 | 0.00 | 0.00 | 0.00 | 71 | 1018.5 |
| 20260507231541 | 61 | 253 | 3.0 | 7.0 | 0.00 | 0.00 | 0.00 | 70 | 1018.7 |
| 20260507230040 | 60 | 219 | 2.0 | 6.0 | 0.00 | 0.00 | 0.00 | 72 | 1018.9 |
| 20260507224539 | 61 | 265 | 1.0 | 7.0 | 0.00 | 0.00 | 0.00 | 72 | 1018.9 |
| 20260507223038 | 61 | 104 | 2.0 | 6.0 | 0.00 | 0.00 | 0.00 | 72 | 1019.1 |
| 20260507221533 | 60 | 257 | 2.0 | 6.0 | 0.00 | 0.00 | 0.00 | 73 | 1019.3 |
| 20260507220031 | 60 | 190 | 1.0 | 6.0 | 0.00 | 0.00 | 0.00 | 74 | 1019.5 |
| 20260507214530 | 59 | 89 | 2.0 | 6.0 | 0.00 | 0.00 | 0.00 | 76 | 1019.6 |
| 20260507213035 | 59 | 257 | 3.0 | 6.0 | 0.00 | 0.00 | 0.00 | 76 | 1019.8 |
| 20260507211537 | 59 | 315 | 2.0 | 7.0 | 0.00 | 0.00 | 0.00 | 77 | 1019.9 |
| 20260507210023 | 59 | 221 | 3.0 | 7.0 | 0.00 | 0.00 | 0.00 | 76 | 1020.0 |
| 20260507204521 | 59 | 231 | 1.0 | 6.0 | 0.00 | 0.00 | 0.00 | 76 | 1020.2 |
| 20260507203019 | 59 | 241 | 2.0 | 6.0 | 0.00 | 0.00 | 0.00 | 76 | 1020.5 |
| 20260507201527 | 58 | 252 | 3.0 | 7.0 | 0.00 | 0.00 | 0.00 | 77 | 1020.6 |
| 20260507200020 | 57 | 288 | 3.0 | 7.0 | 0.00 | 0.00 | 0.00 | 77 | 1020.6 |
| 20260507194514 | 58 | 206 | 3.0 | 7.0 | 0.00 | 0.00 | 0.00 | 75 | 1020.7 |
| 20260507193015 | 58 | 251 | 1.0 | 6.0 | 0.00 | 0.00 | 0.00 | 77 | 1020.8 |
| 20260507191518 | 57 | 262 | 3.0 | 7.0 | 0.00 | 0.00 | 0.00 | 76 | 1020.9 |
| 20260507190015 | 56 | 173 | 0.0 | 5.0 | 0.00 | 0.00 | 0.00 | 80 | 1021.0 |
| 20260507184506 | 56 | 184 | 1.0 | 5.0 | 0.00 | 0.00 | 0.00 | 80 | 1021.0 |
| 20260507183003 | 55 | 162 | 1.0 | 5.0 | 0.00 | 0.00 | 0.00 | 82 | 1021.2 |
| 20260507181503 | 54 | 143 | 1.0 | 5.0 | 0.00 | 0.00 | 0.00 | 83 | 1021.2 |
| 20260507180003 | 54 | 239 | 2.0 | 6.0 | 0.00 | 0.00 | 0.00 | 83 | 1021.2 |
| 20260507174507 | 54 | 146 | 1.0 | 6.0 | 0.00 | 0.00 | 0.00 | 83 | 1021.3 |
| 20260507173001 | 55 | 285 | 1.0 | 4.0 | 0.00 | 0.00 | 0.00 | 82 | 1021.2 |
| 20260507171558 | 54 | 203 | 1.0 | 8.0 | 0.00 | 0.00 | 0.00 | 84 | 1021.1 |
| 20260507170058 | 53 | 207 | 1.0 | 4.0 | 0.00 | 0.00 | 0.00 | 86 | 1021.1 |
| 20260507164555 | 53 | 148 | 2.0 | 5.0 | 0.00 | 0.00 | 0.00 | 85 | 1021.2 |
| 20260507163057 | 52 | 237 | 1.0 | 7.0 | 0.00 | 0.00 | 0.00 | 87 | 1021.1 |
| 20260507161557 | 52 | 215 | 2.0 | 4.0 | 0.00 | 0.00 | 0.00 | 85 | 1021.0 |
| 20260507160053 | 52 | 283 | 1.0 | 6.0 | 0.00 | 0.00 | 0.00 | 86 | 1021.2 |
| 20260507154551 | 52 | 221 | 0.0 | 4.0 | 0.00 | 0.00 | 0.00 | 87 | 1021.2 |
| 20260507153101 | 51 | 149 | 0.0 | 5.0 | 0.00 | 0.00 | 0.00 | 88 | 1021.3 |
| 20260507151548 | 51 | 209 | 1.0 | 4.0 | 0.00 | 0.00 | 0.00 | 88 | 1021.2 |
| 20260507150050 | 50 | 233 | 1.0 | 4.0 | 0.00 | 0.00 | 0.00 | 89 | 1021.4 |
| 20260507144546 | 50 | 155 | 0.0 | 3.0 | 0.00 | 0.00 | 0.00 | 89 | 1021.4 |
| 20260507143058 | 50 | 148 | 0.0 | 3.0 | 0.00 | 0.00 | 0.00 | 91 | 1021.2 |
| 20260507141548 | 49 | 231 | 0.0 | 1.0 | 0.00 | 0.00 | 0.00 | 91 | 1021.3 |
| 20260507140044 | 49 | 148 | 0.0 | 1.0 | 0.00 | 0.00 | 0.00 | 92 | 1021.3 |
| 20260507134544 | 48 | 215 | 0.0 | 3.0 | 0.00 | 0.00 | 0.00 | 92 | 1021.1 |
| 20260507133048 | 48 | 179 | 0.0 | 2.0 | 0.00 | 0.00 | 0.00 | 91 | 1020.9 |
| 20260507131548 | 48 | 160 | 1.0 | 4.0 | 0.00 | 0.00 | 0.00 | 91 | 1020.9 |
| 20260507130055 | 48 | 214 | 0.0 | 2.0 | 0.00 | 0.00 | 0.00 | 91 | 1021.0 |
| 20260507124540 | 48 | 159 | 0.0 | 1.0 | 0.00 | 0.00 | 0.00 | 91 | 1021.0 |
| 20260507123039 | 48 | 159 | 0.0 | 1.0 | 0.00 | 0.00 | 0.00 | 91 | 1021.1 |
| 20260507121538 | 48 | 155 | 0.0 | 2.0 | 0.00 | 0.00 | 0.00 | 91 | 1021.2 |
| 20260507120038 | 49 | 148 | 0.0 | 2.0 | 0.00 | 0.00 | 0.00 | 91 | 1021.3 |
| 20260507114537 | 48 | 148 | 0.0 | 2.0 | 0.00 | 0.00 | 0.00 | 91 | 1021.5 |
| 20260507113036 | 48 | 134 | 0.0 | 1.0 | 0.00 | 0.00 | 0.00 | 91 | 1021.4 |
| 20260507111535 | 48 | 156 | 0.0 | 0.0 | 0.00 | 0.00 | 0.00 | 91 | 1021.4 |
| 20260507110037 | 49 | 137 | 0.0 | 1.0 | 0.00 | 0.00 | 0.00 | 90 | 1021.3 |
| 20260507104534 | 49 | 188 | 0.0 | 2.0 | 0.00 | 0.00 | 0.00 | 90 | 1021.3 |